Location: Unspecified
(29.9680°N, 0.0000°E)
Time: 14:20:22
(UTC+00:00)

A-11 Canister half - Pass Details

Date: 21 June 2019
Orbit: 1526 x 1683 km, 47.3° (Epoch: 16 July)

Event Time Altitude Azimuth Distance (km) Brightness Sun altitude
Rises 05:06:16 0° 253° (WSW) 4,759 10.9 0.5°
Reaches altitude 10° 05:09:34 10° 259° (W) 3,755 10.4 1.1°
Maximum altitude 05:18:34 47° 331° (NNW) 1,959 9.7 2.9°
Drops below altitude 10° 05:27:27 10° 43° (NE) 3,694 12.5 4.6°
Sets 05:30:41 0° 50° (NE) 4,677 13.4 5.2°
